Crosby, ND

1:12 AM CST on January 20, 2017 (GMT -0600)
Crosby

Weather History for KD50 - December, 2012

Change the Weather History Date:

Thursday, December 13, 2012

  Actual Average (KISN) Record (KISN)
Temperature  
Mean Temperature 18 °F -  
Max Temperature 32 °F 24 °F 48 °F (1999)
Min Temperature 3 °F 4 °F -27 °F (1917)
Degree Days  
Heating Degree Days 48    
Moisture  
Dew Point 13 °F    
Average Humidity 91    
Maximum Humidity 100    
Minimum Humidity 78    
Precipitation  
Precipitation 0.12 in - - ()
Sea Level Pressure  
Sea Level Pressure 29.90 in    
Wind  
Wind Speed 5 mph (SE)    
Max Wind Speed 15 mph    
Max Gust Speed -    
Visibility 7 miles    
Events Snow    
Averages and records for this station are not official NWS values.
T = Trace of Precipitation, MM = Missing Value Source: NWS Daily Summary

Daily Weather History Graph

Daily Weather History Graph

Search for Another Location

Airport or City:

Trip Planner

Search our weather history database for the weather conditions in past years. The results will help you decide how hot, cold, wet, or windy it might be!

Date:

Astronomy

Dec. 13, 2012 Rise Set
Actual Time 8:39 AM CST 4:56 PM CST
Civil Twilight 8:01 AM CST 5:33 PM CST
Nautical Twilight 7:21 AM CST 6:13 PM CST
Astronomical Twilight 6:43 AM CST 6:52 PM CST
Moon 8:48 AM CST (12/13) 5:43 PM CST (12/13)
Length of Visible Light 9h 31m
Length of Day
8h 17m
New Moon, 0% of the Moon is Illuminated
Dec 13
New Moon
Dec 19
First Quarter
Dec 28
Full
Jan 4
Last Quarter
Jan 11
New

Hourly Weather History & Observations

Time (CST) Temp. Windchill Dew Point Humidity Pressure Visibility Wind Dir Wind Speed Gust Speed Precip Events Conditions
12:15 AM 3.2 °F -4.2 °F -0.4 °F 85% 29.96 in 1.5 mi NE 3.5 mph - N/A Snow Light Snow
12:35 AM 3.2 °F -6.2 °F -0.4 °F 85% 29.95 in 1.0 mi East 4.6 mph - N/A Snow Light Snow
12:55 AM 5.0 °F -4.1 °F -0.4 °F 78% 29.95 in 2.0 mi East 4.6 mph - 0.01 in Snow Light Snow
1:15 AM 5.0 °F -4.1 °F 1.4 °F 85% 29.94 in 2.0 mi ENE 4.6 mph - 0.01 in Snow Light Snow
1:35 AM 5.0 °F - 1.4 °F 85% 29.96 in 2.0 mi Calm Calm - 0.02 in Snow Light Snow
1:55 AM 5.0 °F -2.1 °F 1.4 °F 85% 29.95 in 2.5 mi ENE 3.5 mph - 0.04 in Snow Light Snow
2:15 AM 5.0 °F - 1.4 °F 85% 29.96 in 3.0 mi Calm Calm - N/A Snow Light Snow
2:35 AM 5.0 °F -2.1 °F 1.4 °F 85% 29.96 in 5.0 mi ENE 3.5 mph - 0.01 in Snow Light Snow
2:55 AM 5.0 °F -2.1 °F 1.4 °F 85% 29.96 in 5.0 mi ENE 3.5 mph - 0.02 in Snow Light Snow
3:15 AM 5.0 °F -2.1 °F 1.4 °F 85% 29.95 in 7.0 mi East 3.5 mph - N/A Snow Light Snow
3:35 AM 5.0 °F -4.1 °F 1.4 °F 85% 29.95 in 10.0 mi East 4.6 mph - N/A   Overcast
3:55 AM 5.0 °F -4.1 °F 1.4 °F 85% 29.96 in 8.0 mi ENE 4.6 mph - N/A Snow Light Snow
4:15 AM 5.0 °F -4.1 °F 1.4 °F 85% 29.96 in 7.0 mi NE 4.6 mph - N/A Snow Light Snow
4:35 AM 6.8 °F -3.5 °F 3.2 °F 85% 29.96 in 8.0 mi NE 5.8 mph - 0.01 in Snow Light Snow
4:55 AM 6.8 °F -2.0 °F 3.2 °F 85% 29.97 in 6.0 mi NNE 4.6 mph - 0.03 in Snow Light Snow
5:15 AM 6.8 °F -2.0 °F 3.2 °F 85% 29.96 in 8.0 mi NNE 4.6 mph - N/A Snow Light Snow
5:35 AM 6.8 °F -4.8 °F 3.2 °F 85% 29.95 in 8.0 mi NE 6.9 mph - 0.02 in Snow Light Snow
5:55 AM 6.8 °F -3.5 °F 3.2 °F 85% 29.96 in 9.0 mi ENE 5.8 mph - 0.02 in Snow Light Snow
6:15 AM 6.8 °F -0.1 °F 3.2 °F 85% 29.97 in 10.0 mi East 3.5 mph - N/A   Overcast
6:35 AM 6.8 °F -3.5 °F 3.2 °F 85% 29.96 in 10.0 mi East 5.8 mph - N/A   Overcast
6:55 AM 6.8 °F -4.8 °F 5.0 °F 92% 29.95 in 10.0 mi ESE 6.9 mph - N/A Snow Light Snow
7:15 AM 6.8 °F -0.1 °F 5.0 °F 92% 29.96 in 10.0 mi ENE 3.5 mph - N/A   Overcast
7:35 AM 6.8 °F - 5.0 °F 92% 29.96 in 10.0 mi Calm Calm - N/A   Overcast
7:55 AM 6.8 °F -2.0 °F 5.0 °F 92% 29.95 in 10.0 mi East 4.6 mph - N/A   Overcast
8:15 AM 6.8 °F -3.5 °F 5.0 °F 92% 29.95 in 10.0 mi SE 5.8 mph - N/A   Overcast
8:35 AM 8.6 °F 0.1 °F 5.0 °F 85% 29.95 in 10.0 mi ESE 4.6 mph - N/A   Overcast
8:55 AM 8.6 °F -1.3 °F 5.0 °F 85% 29.94 in 10.0 mi East 5.8 mph - N/A   Overcast
9:15 AM 8.6 °F -1.3 °F 6.8 °F 92% 29.93 in 10.0 mi ESE 5.8 mph - N/A   Overcast
9:35 AM 8.6 °F -1.3 °F 6.8 °F 92% 29.93 in 10.0 mi East 5.8 mph - N/A   Mostly Cloudy
9:55 AM 8.6 °F 0.1 °F 6.8 °F 92% 29.93 in 10.0 mi East 4.6 mph - N/A   Mostly Cloudy
10:15 AM 10.4 °F 2.2 °F 6.8 °F 85% 29.94 in 10.0 mi ESE 4.6 mph - N/A   Overcast
10:35 AM 10.4 °F - 8.6 °F 92% 29.94 in 10.0 mi Calm Calm - N/A   Overcast
10:55 AM 10.4 °F 4.0 °F 8.6 °F 92% 29.94 in 10.0 mi SE 3.5 mph - N/A   Overcast
11:15 AM 12.2 °F 4.3 °F 10.4 °F 92% 29.93 in 10.0 mi ESE 4.6 mph - N/A Snow Light Snow
11:35 AM 12.2 °F - 10.4 °F 92% 29.94 in 10.0 mi Calm Calm - N/A   Overcast
11:55 AM 14.0 °F - 10.4 °F 86% 29.92 in 8.0 mi Calm Calm - N/A   Overcast
12:15 PM 14.0 °F - 12.2 °F 93% 29.92 in 10.0 mi Calm Calm - N/A   Overcast
12:35 PM 15.8 °F 10.2 °F 14.0 °F 93% 29.91 in 10.0 mi SSE 3.5 mph - N/A   Overcast
12:55 PM 17.6 °F 9.3 °F 15.8 °F 93% 29.89 in 9.0 mi SSE 5.8 mph - N/A   Overcast
1:15 PM 19.4 °F 9.5 °F 17.6 °F 93% 29.88 in 8.0 mi South 8.1 mph - N/A   Overcast
1:35 PM 19.4 °F 9.5 °F 17.6 °F 93% 29.88 in 9.0 mi SSW 8.1 mph - N/A   Overcast
1:55 PM 19.4 °F 9.5 °F 17.6 °F 93% 29.88 in 8.0 mi SSW 8.1 mph - N/A   Overcast
2:15 PM 21.2 °F 11.7 °F 17.6 °F 86% 29.88 in 8.0 mi SSW 8.1 mph - N/A   Overcast
2:35 PM 21.2 °F 11.7 °F 19.4 °F 93% 29.87 in 6.0 mi SSW 8.1 mph - N/A   Overcast
2:55 PM 23.0 °F 13.9 °F 19.4 °F 86% 29.87 in 4.0 mi SSW 8.1 mph - N/A   Overcast
3:15 PM 23.0 °F 14.7 °F 21.2 °F 93% 29.87 in 3.0 mi SSW 6.9 mph - N/A   Overcast
3:35 PM 23.0 °F 13.9 °F 21.2 °F 93% 29.87 in 3.0 mi SSW 8.1 mph - N/A   Overcast
3:55 PM 23.0 °F 14.7 °F 21.2 °F 93% 29.86 in 2.5 mi South 6.9 mph - N/A   Overcast
4:15 PM 23.0 °F 17.0 °F 23.0 °F 100% 29.86 in 2.0 mi South 4.6 mph - N/A   Overcast
4:35 PM 23.0 °F 17.0 °F 23.0 °F 100% 29.85 in 2.0 mi SSE 4.6 mph - N/A   Overcast
6:15 PM 26.6 °F 18.2 °F 26.6 °F 100% 29.83 in 5.0 mi SSW 8.1 mph - N/A   Overcast
7:15 PM 28.4 °F 22.2 °F 28.4 °F 100% 29.84 in 4.0 mi SSW 5.8 mph - N/A   Overcast
7:35 PM 28.4 °F 22.2 °F 28.4 °F 100% 29.83 in 4.0 mi South 5.8 mph - N/A   Overcast
7:55 PM 28.4 °F 20.4 °F 28.4 °F 100% 29.83 in 4.0 mi South 8.1 mph - N/A   Overcast
8:15 PM 30.2 °F 23.4 °F 30.2 °F 100% 29.83 in 5.0 mi SSW 6.9 mph - N/A   Overcast
8:35 PM 30.2 °F 25.4 °F 30.2 °F 100% 29.82 in 5.0 mi SW 4.6 mph - N/A   Overcast
8:55 PM 30.2 °F 22.6 °F 30.2 °F 100% 29.82 in 7.0 mi SSW 8.1 mph - N/A   Overcast
9:15 PM 32.0 °F 25.6 °F 32.0 °F 100% 29.82 in 10.0 mi SSW 6.9 mph - N/A   Overcast
9:35 PM 30.2 °F 22.6 °F 30.2 °F 100% 29.81 in 7.0 mi SSW 8.1 mph - N/A   Overcast
9:55 PM 30.2 °F 21.9 °F 30.2 °F 100% 29.81 in 8.0 mi SSW 9.2 mph - N/A   Overcast
10:15 PM 32.0 °F 23.6 °F 30.2 °F 93% 29.81 in 10.0 mi SSW 10.4 mph - N/A   Overcast
10:35 PM 32.0 °F 23.0 °F 30.2 °F 93% 29.80 in 10.0 mi SSW 11.5 mph - N/A   Overcast
10:55 PM 30.2 °F 21.3 °F 28.4 °F 93% 29.80 in 10.0 mi SSW 10.4 mph - N/A   Overcast
11:15 PM 30.2 °F 20.2 °F 28.4 °F 93% 29.80 in 10.0 mi SSW 12.7 mph - N/A   Overcast
11:35 PM 32.0 °F 21.6 °F 28.4 °F 87% 29.80 in 10.0 mi SSW 15.0 mph - N/A   Overcast